Location: Badlands Tank
(34.7185°N, 107.0376°W)
Time: 14:02:49
(UTC+00:00)

Meteor 2-5 Rocket - Pass Details

Date: 15 November 2025
Orbit: 832 x 911 km, 81.2° (Epoch: 09 December)

Event Time Altitude Azimuth Distance (km) Brightness Sun altitude
Exits shadow 10:09:40 11° 37° (NE) 2,522 6.5 -43.7°
Drops below altitude 10° 10:09:53 10° 36° (NE) 2,583 6.6 -43.6°
Sets 10:12:37 0° 24° (NNE) 3,489 7.2 -43.1°
